This is the latest recevied weather packets stored in our database for station/object HB9EYW-6. If no packets are shown the sender has not sent any weather packets the latest 10 day(s).
| Time | Temp. | Humidity | Pressure | Rain* | Wind** | Luminosity | Snow |
|---|---|---|---|---|---|---|---|
| 1778233805 | 19.44° C | 43% | 0 hPa | 0 mm | - | - | - |
| 1778233505 | 19.44° C | 46% | 0 hPa | 0 mm | - | - | - |
| 1778233205 | 18.89° C | 45% | 0 hPa | 0 mm | - | - | - |
| 1778232905 | 18.89° C | 45% | 0 hPa | 0 mm | - | - | - |
| 1778232605 | 18.89° C | 45% | 0 hPa | 0 mm | - | - | - |
| 1778232305 | 18.89° C | 45% | 0 hPa | 0 mm | - | - | - |
| 1778232005 | 18.89° C | 47% | 0 hPa | 0 mm | - | - | - |
| 1778231705 | 18.33° C | 47% | 0 hPa | 0 mm | - | - | - |
| 1778231405 | 18.33° C | 47% | 0 hPa | 0 mm | - | - | - |
| 1778231105 | 18.33° C | 47% | 0 hPa | 0 mm | - | - | - |
| 1778230805 | 18.33° C | 47% | 0 hPa | 0 mm | - | - | - |
| 1778230505 | 18.33° C | 49% | 0 hPa | 0 mm | - | - | - |
| 1778230205 | 17.78° C | 47% | 0 hPa | 0 mm | - | - | - |
| 1778229905 | 17.78° C | 48% | 0 hPa | 0 mm | - | - | - |
| 1778229605 | 17.78° C | 51% | 0 hPa | 0 mm | - | - | - |
| 1778229305 | 17.78° C | 54% | 0 hPa | 0 mm | - | - | - |
| 1778229005 | 16.67° C | 57% | 0 hPa | 0 mm | - | - | - |
| 1778228705 | 16.11° C | 59% | 0 hPa | 0 mm | - | - | - |
| 1778228405 | 15.56° C | 63% | 0 hPa | 0 mm | - | - | - |
| 1778228105 | 15° C | 66% | 0 hPa | 0 mm | - | - | - |
| 1778227805 | 14.44° C | 66% | 0 hPa | 0 mm | - | - | - |
| 1778227505 | 13.89° C | 67% | 0 hPa | 0 mm | - | - | - |
| 1778227205 | 13.89° C | 67% | 0 hPa | 0 mm | - | - | - |
| 1778226905 | 13.89° C | 68% | 0 hPa | 0 mm | - | - | - |
| 1778226605 | 13.33° C | 68% | 0 hPa | 0 mm | - | - | - |
* Rain latest hour (hover to see other rain measurements)
** Current wind speed in m/s (hover to see current wind gust speed)